Total_Precipitation_Accumulation
0.41 0.38 0.48 0.46 0.44 0.42 0.43 0.51 0.62 0.73 0.74 0.73 0.71 0.73 0.78 0.80 0.92 0.99 0.99 1.00 1.12 1.34 1.62 1.99 2.34 2.54 2.66 2.81 2.84 2.85 2.88 2.76 2.60 2.48 2.50 2.53 2.60 2.60 2.63 2.62 2.65 2.50 2.26
0.32 0.32 0.40 0.43 0.43 0.45 0.46 0.52 0.64 0.73 0.72 0.78 0.77 0.76 0.84 0.94 0.94 0.92 0.95 1.00 1.18 1.40 1.57 1.77 2.00 2.31 2.44 2.52 2.53 2.70 2.80 2.59 2.73 3.03 3.21 3.01 2.87 2.75 2.94 2.83 2.83 2.88 2.36
0.29 0.34 0.35 0.50 0.48 0.47 0.48 0.52 0.60 0.72 0.76 0.84 0.86 0.84 0.90 0.98 0.95 0.89 0.97 1.08 1.32 1.57 1.69 1.78 1.93 2.24 2.47 2.44 2.49 2.64 2.83 2.85 2.98 3.44 3.85 3.35 3.17 3.05 2.81 2.62 2.49 2.41 2.13
0.50 0.47 0.41 0.54 0.56 0.48 0.49 0.56 0.66 0.78 0.83 0.96 0.95 0.82 0.87 0.93 0.95 0.91 0.96 1.08 1.36 1.66 1.88 1.87 1.87 2.03 2.07 2.07 2.24 2.52 2.73 2.84 3.14 3.48 3.74 3.60 3.51 3.54 3.12 2.71 2.49 2.36 2.10
0.70 0.58 0.53 0.61 0.64 0.61 0.60 0.63 0.71 0.82 0.89 0.98 0.89 0.90 0.97 0.97 0.97 0.98 0.97 1.04 1.27 1.71 1.94 1.86 1.78 1.72 1.73 1.81 2.00 2.24 2.57 2.89 3.25 3.42 3.78 4.14 4.27 4.07 3.27 2.72 2.56 2.55 2.26
0.64 0.56 0.51 0.58 0.60 0.64 0.61 0.62 0.75 0.80 0.89 0.98 1.01 1.02 1.03 1.07 1.11 1.09 1.10 1.21 1.33 1.67 1.93 1.86 1.77 1.67 1.65 1.75 1.85 2.00 2.26 2.78 3.09 3.15 3.86 4.08 3.88 4.00 3.47 2.97 2.74 2.55 2.25
0.64 0.58 0.51 0.53 0.60 0.62 0.66 0.68 0.85 0.92 1.00 1.12 1.16 1.11 1.11 1.16 1.19 1.18 1.27 1.36 1.51 1.64 1.83 1.80 1.70 1.63 1.54 1.65 1.70 1.82 1.95 2.42 2.64 3.38 3.59 3.59 3.70 3.99 3.78 3.34 3.03 2.67 2.33
0.77 0.71 0.60 0.56 0.70 0.81 0.83 0.83 0.96 0.98 1.08 1.17 1.24 1.21 1.15 1.12 1.09 1.11 1.26 1.38 1.58 1.76 1.74 1.55 1.46 1.45 1.49 1.57 1.66 1.77 1.89 1.95 2.09 2.74 3.11 3.17 3.23 3.65 3.88 3.44 3.01 2.75 2.53
0.84 0.71 0.66 0.61 0.79 1.02 1.07 0.99 0.99 0.98 1.10 1.22 1.34 1.36 1.24 1.13 1.07 1.11 1.19 1.28 1.46 1.53 1.42 1.32 1.29 1.26 1.33 1.45 1.68 1.65 1.78 2.03 2.07 2.54 2.71 2.91 2.79 3.29 3.80 3.58 3.00 2.72 2.65
1.09 0.91 0.84 0.86 0.93 1.05 1.07 1.11 1.08 1.07 1.20 1.31 1.37 1.40 1.36 1.27 1.21 1.24 1.19 1.29 1.38 1.45 1.41 1.38 1.33 1.28 1.27 1.33 1.56 1.75 1.86 1.95 1.94 2.28 3.07 2.95 2.70 3.45 3.87 3.67 3.23 2.92 2.76
1.30 1.36 1.28 1.21 1.21 1.20 1.18 1.18 1.29 1.30 1.36 1.38 1.44 1.41 1.38 1.42 1.50 1.48 1.32 1.40 1.47 1.59 1.65 1.59 1.54 1.49 1.39 1.39 1.55 1.73 1.83 1.62 1.92 2.58 3.21 3.08 3.03 3.67 3.91 3.71 3.45 3.21 2.98
1.60 1.69 1.70 1.69 1.65 1.61 1.54 1.72 1.80 1.59 1.52 1.50 1.66 1.49 1.48 1.79 1.88 1.68 1.78 1.88 1.98 1.99 1.93 1.84 1.76 1.67 1.50 1.40 1.55 1.68 1.54 1.63 2.20 2.82 2.94 2.79 3.29 3.93 4.13 3.82 3.57 3.48 3.30
1.99 1.76 1.71 1.98 2.10 2.17 2.29 2.18 2.17 2.14 2.11 2.03 2.14 2.00 2.01 2.19 2.12 2.18 2.28 2.18 2.09 2.11 2.06 2.14 1.96 1.59 1.42 1.59 1.71 1.69 1.73 1.81 2.19 2.68 2.88 2.89 3.47 4.10 4.37 4.18 3.82 3.70 3.71
2.35 2.15 1.92 1.99 2.08 2.27 2.47 2.47 2.42 2.33 2.28 2.22 2.35 2.18 2.34 2.54 2.67 2.74 2.83 2.57 2.47 2.42 2.54 2.54 2.37 2.00 1.74 1.73 1.69 1.76 1.92 1.96 2.15 2.55 2.78 2.61 3.07 3.80 4.36 4.44 4.16 3.98 3.92
2.74 2.60 2.42 2.19 2.16 2.33 2.64 2.80 2.76 2.82 2.66 2.70 2.84 2.64 2.61 2.68 2.76 3.11 3.14 3.36 2.95 2.86 3.02 2.98 2.71 2.54 2.29 2.09 1.99 1.98 2.11 2.12 2.17 2.42 2.58 2.53 2.82 3.41 4.04 4.37 4.43 4.35 4.26
3.37 3.03 2.76 2.60 2.47 2.46 2.60 2.94 3.06 2.90 2.95 2.98 3.12 3.04 2.97 3.01 3.13 3.47 3.63 3.72 3.46 3.49 3.72 3.73 3.46 3.21 2.93 2.83 2.57 2.54 2.49 2.52 2.73 2.76 2.76 2.68 2.65 2.90 3.60 4.15 4.49 4.69 4.66
3.62 3.45 3.17 3.03 3.05 2.86 2.79 3.09 3.21 3.13 3.07 3.13 3.35 3.42 3.29 3.37 3.70 3.81 4.17 4.15 3.93 3.91 3.97 3.96 4.17 4.07 3.54 3.24 3.14 3.09 2.98 2.85 3.06 3.20 3.28 3.13 2.88 2.89 3.16 3.71 4.08 4.30 4.48
3.83 3.63 3.47 3.08 3.08 3.30 3.31 3.60 3.54 3.62 3.76 3.73 3.78 3.96 3.88 3.92 4.04 4.09 4.13 4.23 4.16 4.12 4.44 4.64 4.56 4.46 4.22 3.87 3.75 3.48 3.25 3.24 3.05 3.07 3.21 3.13 3.14 2.87 2.78 2.96 3.33 3.50 3.87
3.30 3.43 3.50 3.41 3.35 3.38 3.59 4.02 4.15 4.37 4.55 4.71 4.75 4.96 4.85 4.61 4.51 4.59 4.58 4.74 4.58 4.65 4.67 4.51 4.95 4.94 4.82 4.37 3.87 3.64 3.29 3.26 3.16 2.82 2.85 2.90 2.95 2.87 2.81 2.75 3.03 3.26 3.55
3.31 3.45 3.53 3.70 3.90 3.87 3.93 4.24 4.71 4.94 5.08 5.42 5.45 5.47 5.52 5.49 5.35 5.36 5.32 5.37 5.23 5.09 5.03 5.02 5.12 4.88 4.72 4.46 3.87 3.57 3.21 2.84 2.78 2.78 2.56 2.72 2.67 2.45 2.63 2.78 2.94 2.85 3.26
3.44 3.64 3.55 3.75 4.15 4.43 4.82 4.83 5.06 5.55 5.90 6.00 6.04 6.00 5.90 5.84 5.88 5.75 5.59 5.74 5.57 5.31 5.10 5.08 5.06 4.93 4.55 4.51 4.53 4.04 3.30 2.81 2.60 2.43 2.48 2.56 2.41 2.37 2.69 2.78 2.74 2.68 2.67
3.43 3.67 3.78 3.93 4.42 4.88 5.45 5.99 6.39 6.84 6.89 7.01 6.92 6.78 6.40 6.23 6.16 5.98 6.03 5.86 5.67 5.58 5.29 5.08 5.06 4.95 4.55 4.61 4.65 4.64 3.82 3.21 2.53 1.97 2.12 2.19 2.18 2.25 2.37 2.39 2.40 2.50 2.53
3.49 3.72 3.87 4.21 4.80 5.62 6.21 6.72 7.27 7.64 7.39 7.18 6.87 6.70 6.55 6.48 6.40 6.30 6.31 6.05 5.84 5.60 5.26 4.97 4.85 4.78 4.64 4.64 4.51 4.64 4.07 3.36 2.77 2.22 1.92 1.86 1.99 2.16 2.18 2.29 2.23 2.26 2.34
3.53 3.66 3.87 4.51 5.17 5.80 6.45 7.09 7.64 7.89 7.88 7.69 7.13 6.64 6.24 5.99 5.74 5.68 5.75 5.64 5.47 5.16 4.94 4.58 4.49 4.44 4.61 4.41 4.37 4.15 3.85 3.51 3.29 2.80 2.29 2.05 2.04 2.03 2.07 2.10 2.12 2.21 2.27
3.21 3.62 3.93 4.60 5.34 5.99 6.75 7.48 7.87 8.03 8.00 7.62 6.84 6.09 5.56 5.24 4.95 4.76 4.82 4.77 4.61 4.42 4.26 4.19 4.26 4.17 4.11 3.93 3.84 3.88 3.93 3.85 3.43 3.06 2.68 2.39 2.27 2.11 2.11 2.14 2.27 2.29 2.26
2.96 3.42 3.94 4.30 4.97 5.79 6.39 6.89 7.03 7.15 7.11 6.70 6.24 5.73 5.36 4.87 4.40 4.04 3.94 3.90 3.72 3.56 3.57 3.61 3.72 3.68 3.72 3.74 3.66 3.53 3.55 3.57 3.33 3.22 2.88 2.58 2.51 2.26 2.18 2.11 2.10 2.18 2.25